START_TIME,STEP,MOV.,M35,t_acc.,PL05,t_acc.,PL06,t_acc.,PL07,t_acc.
1981-08-24 15:00:24.940 ,3,0,0.,4.8,3.,4.8,0.,4.8,0.,4.8
1981-08-24 15:00:29.740 ,3,0,0.,4.8,2.,4.8,0.,4.8,0.,4.8
1981-08-24 15:00:34.540 ,3,0,0.,4.8,2.,4.8,0.,4.8,0.,4.8
1981-08-24 15:00:39.340 ,3,0,0.,4.8,2.,4.8,0.,4.8,0.,4.8
1981-08-24 15:00:44.140 ,3,0,0.,4.8,2.,4.8,0.,4.8,0.,4.8
1981-08-24 15:00:48.940 ,4,0,0.,4.8,2.,4.8,0.,4.8,0.,4.8
1981-08-24 15:00:53.740 ,4,0,0.,4.8,2.,4.8,2.,4.8,0.,4.8
1981-08-24 15:00:58.540 ,4,0,0.,4.8,3.,4.8,1.,4.8,0.,4.8
1981-08-24 15:01:03.340 ,4,0,0.,4.8,4.,4.8,0.,4.8,0.,4.8
1981-08-24 15:01:08.140 ,4,0,0.,4.8,3.,4.8,0.,4.8,0.,4.8
1981-08-24 15:01:12.940 ,4,0,0.,4.8,5.,4.8,0.,4.8,1.,4.8
1981-08-24 15:01:17.740 ,4,0,0.,4.8,5.,4.8,2.,4.8,0.,4.8
1981-08-24 15:01:22.540 ,4,0,0.,4.8,3.,4.8,3.,4.8,0.,4.8
1981-08-24 15:01:27.340 ,4,0,0.,4.8,3.,4.8,0.,4.8,0.,4.8
1981-08-24 15:01:32.140 ,4,0,0.,4.8,4.,4.8,2.,4.8,0.,4.8
1981-08-24 15:01:36.940 ,5,0,0.,4.8,1.,4.8,1.,4.8,1.,4.8
1981-08-24 15:01:41.740 ,5,0,0.,4.8,2.,4.8,1.,4.8,0.,4.8
1981-08-24 15:01:46.540 ,5,0,0.,4.8,5.,4.8,1.,4.8,0.,4.8
1981-08-24 15:01:51.340 ,5,0,0.,4.8,1.,4.8,1.,4.8,1.,4.8
1981-08-24 15:01:56.140 ,5,0,0.,4.8,2.,4.8,1.,4.8,0.,4.8
1981-08-24 15:02:00.940 ,5,0,0.,4.8,1.,4.8,0.,4.8,0.,4.8
1981-08-24 15:02:05.740 ,5,0,0.,4.8,2.,4.8,0.,4.8,0.,4.8
1981-08-24 15:02:10.540 ,5,0,0.,4.8,2.,4.8,1.,4.8,0.,4.8
1981-08-24 15:02:15.340 ,5,0,0.,4.8,2.,4.8,0.,4.8,0.,4.8
1981-08-24 15:02:20.140 ,5,0,0.,4.8,3.,4.8,0.,4.8,0.,4.8
1981-08-24 15:02:24.940 ,6,0,0.,4.8,0.,4.8,1.,4.8,0.,4.8
1981-08-24 15:02:29.740 ,6,0,0.,4.8,4.,4.8,0.,4.8,0.,4.8
1981-08-24 15:02:34.540 ,6,0,0.,4.8,3.,4.8,1.,4.8,0.,4.8
1981-08-24 15:02:39.340 ,6,0,0.,4.8,0.,4.8,2.,4.8,0.,4.8
1981-08-24 15:02:44.140 ,6,0,0.,4.8,3.,4.8,1.,4.8,0.,4.8
1981-08-24 15:02:48.940 ,6,0,0.,4.8,1.,4.8,0.,4.8,0.,4.8
1981-08-24 15:02:53.740 ,6,0,0.,4.8,4.,4.8,1.,4.8,0.,4.8
1981-08-24 15:02:58.540 ,6,0,0.,4.8,1.,4.8,0.,4.8,0.,4.8
1981-08-24 15:03:03.340 ,6,0,0.,4.8,2.,4.8,1.,4.8,0.,4.8
1981-08-24 15:03:08.140 ,6,0,0.,4.8,1.,4.8,0.,4.8,0.,4.8
1981-08-24 15:03:12.940 ,7,0,0.,4.8,3.,4.8,0.,4.8,0.,4.8
1981-08-24 15:03:17.740 ,7,0,0.,4.8,1.,4.8,0.,4.8,0.,4.8
1981-08-24 15:03:22.540 ,7,0,0.,4.8,0.,4.8,0.,4.8,0.,4.8
1981-08-24 15:03:27.340 ,7,0,0.,4.8,0.,4.8,1.,4.8,0.,4.8
1981-08-24 15:03:32.140 ,7,0,0.,4.8,0.,4.8,0.,4.8,0.,4.8
1981-08-24 15:03:36.940 ,7,0,0.,4.8,0.,4.8,0.,4.8,0.,4.8
1981-08-24 15:03:41.740 ,7,0,0.,4.8,1.,4.8,0.,4.8,1.,4.8
1981-08-24 15:03:46.540 ,7,0,0.,4.8,1.,4.8,0.,4.8,0.,4.8
1981-08-24 15:03:51.340 ,7,0,0.,4.8,1.,4.8,0.,4.8,0.,4.8
1981-08-24 15:03:56.140 ,7,0,0.,4.8,0.,4.8,0.,4.8,0.,4.8
1981-08-24 15:04:00.940 ,7,0,0.,4.8,0.,4.8,0.,4.8,0.,4.8
1981-08-24 15:04:05.740 ,7,0,0.,4.8,0.,4.8,0.,4.8,0.,4.8
1981-08-24 15:04:10.540 ,7,0,0.,4.8,3.,4.8,0.,4.8,0.,4.8
1981-08-24 15:04:15.340 ,7,0,0.,4.8,0.,4.8,0.,4.8,0.,4.8
1981-08-24 15:04:20.140 ,7,0,0.,4.8,0.,4.8,0.,4.8,0.,4.8
1981-08-24 15:04:24.940 ,6,0,0.,4.8,1.,4.8,0.,4.8,0.,4.8
1981-08-24 15:04:29.740 ,6,0,0.,4.8,1.,4.8,0.,4.8,0.,4.8
1981-08-24 15:04:34.540 ,6,0,0.,4.8,1.,4.8,0.,4.8,0.,4.8
1981-08-24 15:04:39.340 ,6,0,0.,4.8,1.,4.8,0.,4.8,0.,4.8
1981-08-24 15:04:44.140 ,6,0,0.,4.8,1.,4.8,0.,4.8,0.,4.8
1981-08-24 15:04:48.940 ,5,0,0.,4.8,1.,4.8,1.,4.8,0.,4.8
1981-08-24 15:04:53.740 ,5,0,0.,4.8,2.,4.8,0.,4.8,1.,4.8
1981-08-24 15:04:58.540 ,5,0,0.,4.8,2.,4.8,0.,4.8,0.,4.8
1981-08-24 15:05:03.340 ,5,0,0.,4.8,0.,4.8,0.,4.8,0.,4.8
1981-08-24 15:05:08.140 ,5,0,0.,4.8,0.,4.8,0.,4.8,0.,4.8
1981-08-24 15:05:12.940 ,4,0,0.,4.8,2.,4.8,1.,4.8,0.,4.8
1981-08-24 15:05:17.740 ,4,0,0.,4.8,1.,4.8,0.,4.8,1.,4.8
1981-08-24 15:05:22.540 ,4,0,0.,4.8,3.,4.8,2.,4.8,0.,4.8
1981-08-24 15:05:27.340 ,4,0,0.,4.8,3.,4.8,1.,4.8,0.,4.8
1981-08-24 15:05:32.140 ,4,0,0.,4.8,3.,4.8,0.,4.8,0.,4.8
1981-08-24 15:05:36.940 ,3,0,0.,4.8,0.,4.8,1.,4.8,0.,4.8
1981-08-24 15:05:41.740 ,3,0,0.,4.8,3.,4.8,0.,4.8,0.,4.8
1981-08-24 15:05:46.540 ,3,0,0.,4.8,6.,4.8,0.,4.8,0.,4.8
1981-08-24 15:05:51.340 ,3,0,0.,4.8,4.,4.8,2.,4.8,0.,4.8
1981-08-24 15:05:56.140 ,3,0,0.,4.8,1.,4.8,0.,4.8,0.,4.8
1981-08-24 15:06:00.940 ,2,0,0.,4.8,4.,4.8,1.,4.8,0.,4.8
1981-08-24 15:06:05.740 ,2,0,0.,4.8,2.,4.8,0.,4.8,1.,4.8
1981-08-24 15:06:10.540 ,2,0,0.,4.8,6.,4.8,0.,4.8,0.,4.8
1981-08-24 15:06:15.340 ,2,0,0.,4.8,0.,4.8,1.,4.8,1.,4.8
1981-08-24 15:06:20.140 ,2,0,0.,4.8,1.,4.8,0.,4.8,0.,4.8
1981-08-24 15:06:24.940 ,1,0,0.,4.8,0.,4.8,0.,4.8,0.,4.8
1981-08-24 15:06:29.740 ,1,0,0.,4.8,0.,4.8,1.,4.8,0.,4.8
1981-08-24 15:06:34.540 ,1,0,0.,4.8,2.,4.8,0.,4.8,0.,4.8
1981-08-24 15:06:39.340 ,1,0,0.,4.8,2.,4.8,0.,4.8,0.,4.8
1981-08-24 15:06:44.140 ,1,0,0.,4.8,0.,4.8,1.,4.8,0.,4.8
1981-08-24 15:06:48.940 ,0,0,0.,4.8,3.,4.8,0.,4.8,1.,4.8
1981-08-24 15:06:53.740 ,0,0,0.,4.8,1.,4.8,0.,4.8,0.,4.8
1981-08-24 15:06:58.540 ,0,0,0.,4.8,2.,4.8,2.,4.8,0.,4.8
1981-08-24 15:07:03.340 ,0,0,0.,4.8,2.,4.8,0.,4.8,0.,4.8
1981-08-24 15:07:08.140 ,0,0,0.,4.8,2.,4.8,1.,4.8,0.,4.8
1981-08-24 15:07:12.940 ,0,0,0.,4.8,4.,4.8,0.,4.8,0.,4.8
1981-08-24 15:07:17.740 ,0,0,0.,4.8,3.,4.8,0.,4.8,0.,4.8
1981-08-24 15:07:22.540 ,0,0,0.,4.8,1.,4.8,2.,4.8,0.,4.8
1981-08-24 15:07:27.340 ,0,0,0.,4.8,2.,4.8,2.,4.8,0.,4.8
1981-08-24 15:07:32.140 ,0,0,0.,4.8,3.,4.8,0.,4.8,0.,4.8
1981-08-24 15:07:36.940 ,1,0,0.,4.8,2.,4.8,0.,4.8,0.,4.8
1981-08-24 15:07:41.740 ,1,0,0.,4.8,9.,4.8,1.,4.8,0.,4.8
1981-08-24 15:07:46.540 ,1,0,0.,4.8,0.,4.8,1.,4.8,0.,4.8
1981-08-24 15:07:51.340 ,1,0,0.,4.8,0.,4.8,0.,4.8,0.,4.8
1981-08-24 15:07:56.140 ,1,0,0.,4.8,4.,4.8,1.,4.8,0.,4.8
1981-08-24 15:08:00.940 ,2,0,0.,4.8,2.,4.8,1.,4.8,0.,4.8
1981-08-24 15:08:05.740 ,2,0,0.,4.8,1.,4.8,1.,4.8,0.,4.8
1981-08-24 15:08:10.540 ,2,0,0.,4.8,0.,4.8,0.,4.8,0.,4.8
1981-08-24 15:08:15.340 ,2,0,0.,4.8,3.,4.8,1.,4.8,0.,4.8
1981-08-24 15:08:20.140 ,2,0,0.,4.8,2.,4.8,1.,4.8,0.,4.8
1981-08-24 15:08:24.940 ,3,0,0.,4.8,0.,4.8,1.,4.8,0.,4.8
1981-08-24 15:08:29.740 ,3,0,0.,4.8,1.,4.8,0.,4.8,0.,4.8
1981-08-24 15:08:34.540 ,3,0,0.,4.8,3.,4.8,0.,4.8,0.,4.8
1981-08-24 15:08:39.340 ,3,0,0.,4.8,1.,4.8,1.,4.8,0.,4.8
1981-08-24 15:08:44.140 ,3,0,0.,4.8,3.,4.8,0.,4.8,0.,4.8
1981-08-24 15:08:48.940 ,4,0,0.,4.8,0.,4.8,2.,4.8,0.,4.8
1981-08-24 15:08:53.740 ,4,0,0.,4.8,0.,4.8,0.,4.8,0.,4.8
1981-08-24 15:08:58.540 ,4,0,0.,4.8,2.,4.8,0.,4.8,0.,4.8
1981-08-24 15:09:03.340 ,4,0,0.,4.8,2.,4.8,1.,4.8,1.,4.8
1981-08-24 15:09:08.140 ,4,0,0.,4.8,5.,4.8,4.,4.8,1.,4.8
1981-08-24 15:09:12.940 ,5,0,0.,4.8,2.,4.8,2.,4.8,1.,4.8
1981-08-24 15:09:17.740 ,5,0,0.,4.8,4.,4.8,3.,4.8,0.,4.8
1981-08-24 15:09:22.540 ,5,0,0.,4.8,3.,4.8,0.,4.8,1.,4.8
1981-08-24 15:09:27.340 ,5,0,0.,4.8,1.,4.8,0.,4.8,0.,4.8
1981-08-24 15:09:32.140 ,5,0,0.,4.8,2.,4.8,0.,4.8,2.,4.8
1981-08-24 15:09:36.940 ,6,0,0.,4.8,3.,4.8,2.,4.8,1.,4.8
1981-08-24 15:09:41.740 ,6,0,0.,4.8,3.,4.8,0.,4.8,0.,4.8
1981-08-24 15:09:46.540 ,6,0,0.,4.8,0.,4.8,0.,4.8,0.,4.8
1981-08-24 15:09:51.340 ,6,0,0.,4.8,2.,4.8,0.,4.8,0.,4.8
1981-08-24 15:09:56.140 ,6,0,0.,4.8,1.,4.8,2.,4.8,0.,4.8
1981-08-24 15:10:00.940 ,7,0,0.,4.8,3.,4.8,0.,4.8,0.,4.8
1981-08-24 15:10:05.740 ,7,0,0.,4.8,5.,4.8,1.,4.8,0.,4.8
1981-08-24 15:10:10.540 ,7,0,0.,4.8,1.,4.8,0.,4.8,0.,4.8
1981-08-24 15:10:15.340 ,7,0,0.,4.8,0.,4.8,0.,4.8,0.,4.8
1981-08-24 15:10:20.140 ,7,0,0.,4.8,1.,4.8,0.,4.8,0.,4.8
1981-08-24 15:10:24.940 ,7,0,0.,4.8,0.,4.8,0.,4.8,1.,4.8
1981-08-24 15:10:29.740 ,7,0,0.,4.8,1.,4.8,0.,4.8,0.,4.8
1981-08-24 15:10:34.540 ,7,0,0.,4.8,1.,4.8,0.,4.8,0.,4.8
1981-08-24 15:10:39.340 ,7,0,0.,4.8,0.,4.8,1.,4.8,0.,4.8
1981-08-24 15:10:44.140 ,7,0,0.,4.8,0.,4.8,0.,4.8,0.,4.8
1981-08-24 15:10:48.940 ,7,0,0.,4.8,1.,4.8,0.,4.8,0.,4.8
1981-08-24 15:10:53.740 ,7,0,0.,4.8,0.,4.8,1.,4.8,0.,4.8
1981-08-24 15:10:58.540 ,7,0,0.,4.8,0.,4.8,0.,4.8,0.,4.8
1981-08-24 15:11:03.340 ,7,0,0.,4.8,1.,4.8,0.,4.8,0.,4.8
1981-08-24 15:11:08.140 ,7,0,0.,4.8,1.,4.8,0.,4.8,0.,4.8
1981-08-24 15:11:12.940 ,6,0,0.,4.8,0.,4.8,0.,4.8,0.,4.8
1981-08-24 15:11:17.740 ,6,0,0.,4.8,1.,4.8,0.,4.8,0.,4.8
1981-08-24 15:11:22.540 ,6,0,0.,4.8,3.,4.8,0.,4.8,1.,4.8
1981-08-24 15:11:27.340 ,6,0,0.,4.8,5.,4.8,0.,4.8,0.,4.8
1981-08-24 15:11:32.140 ,6,0,0.,4.8,3.,4.8,0.,4.8,1.,4.8
1981-08-24 15:11:36.940 ,6,0,0.,4.8,2.,4.8,0.,4.8,0.,4.8
1981-08-24 15:11:41.740 ,6,0,0.,4.8,1.,4.8,1.,4.8,1.,4.8
1981-08-24 15:11:46.540 ,6,0,0.,4.8,0.,4.8,0.,4.8,0.,4.8
1981-08-24 15:11:51.340 ,6,0,0.,4.8,2.,4.8,0.,4.8,1.,4.8
1981-08-24 15:11:56.140 ,6,0,0.,4.8,2.,4.8,0.,4.8,1.,4.8
1981-08-24 15:12:00.940 ,5,0,0.,4.8,2.,4.8,0.,4.8,0.,4.8
1981-08-24 15:12:05.740 ,5,0,0.,4.8,3.,4.8,0.,4.8,0.,4.8
1981-08-24 15:12:10.540 ,5,0,0.,4.8,0.,4.8,2.,4.8,0.,4.8
1981-08-24 15:12:15.340 ,5,0,0.,4.8,1.,4.8,0.,4.8,0.,4.8
1981-08-24 15:12:20.140 ,5,0,0.,4.8,1.,4.8,0.,4.8,1.,4.8
1981-08-24 15:12:24.940 ,5,0,0.,4.8,4.,4.8,0.,4.8,0.,4.8
1981-08-24 15:12:29.740 ,5,0,0.,4.8,0.,4.8,0.,4.8,0.,4.8
1981-08-24 15:12:34.540 ,5,0,0.,4.8,0.,4.8,0.,4.8,0.,4.8
1981-08-24 15:12:39.340 ,5,0,0.,4.8,2.,4.8,1.,4.8,0.,4.8
1981-08-24 15:12:44.140 ,5,0,0.,4.8,1.,4.8,1.,4.8,0.,4.8
1981-08-24 15:12:48.940 ,4,0,0.,4.8,0.,4.8,0.,4.8,0.,4.8
1981-08-24 15:12:53.740 ,4,0,0.,4.8,2.,4.8,2.,4.8,0.,4.8
1981-08-24 15:12:58.540 ,4,0,0.,4.8,5.,4.8,0.,4.8,0.,4.8
1981-08-24 15:13:03.340 ,4,0,0.,4.8,1.,4.8,1.,4.8,1.,4.8
1981-08-24 15:13:08.140 ,4,0,0.,4.8,3.,4.8,1.,4.8,0.,4.8
1981-08-24 15:13:12.940 ,4,0,0.,4.8,4.,4.8,0.,4.8,1.,4.8
1981-08-24 15:13:17.740 ,4,0,0.,4.8,1.,4.8,1.,4.8,1.,4.8
1981-08-24 15:13:22.540 ,4,0,0.,4.8,5.,4.8,0.,4.8,0.,4.8
1981-08-24 15:13:27.340 ,4,0,0.,4.8,1.,4.8,1.,4.8,1.,4.8
1981-08-24 15:13:32.140 ,4,0,0.,4.8,3.,4.8,1.,4.8,0.,4.8
1981-08-24 15:13:36.940 ,3,0,0.,4.8,3.,4.8,0.,4.8,0.,4.8
1981-08-24 15:13:41.740 ,3,0,0.,4.8,2.,4.8,2.,4.8,0.,4.8
1981-08-24 15:13:46.540 ,3,0,0.,4.8,0.,4.8,0.,4.8,1.,4.8
1981-08-24 15:13:51.340 ,3,0,0.,4.8,0.,4.8,0.,4.8,1.,4.8
1981-08-24 15:13:56.140 ,3,0,0.,4.8,3.,4.8,0.,4.8,0.,4.8
1981-08-24 15:14:00.940 ,3,0,0.,4.8,3.,4.8,2.,4.8,1.,4.8
1981-08-24 15:14:05.740 ,3,0,0.,4.8,1.,4.8,1.,4.8,0.,4.8
1981-08-24 15:14:10.540 ,3,0,0.,4.8,3.,4.8,2.,4.8,1.,4.8
1981-08-24 15:14:15.340 ,3,0,0.,4.8,1.,4.8,0.,4.8,0.,4.8
1981-08-24 15:14:20.140 ,3,0,0.,4.8,5.,4.8,0.,4.8,0.,4.8
1981-08-24 15:14:24.940 ,2,0,0.,4.8,1.,4.8,0.,4.8,0.,4.8
1981-08-24 15:14:29.740 ,2,0,0.,4.8,1.,4.8,1.,4.8,1.,4.8
1981-08-24 15:14:34.540 ,2,0,0.,4.8,0.,4.8,1.,4.8,0.,4.8
1981-08-24 15:14:39.340 ,2,0,0.,4.8,1.,4.8,1.,4.8,0.,4.8
1981-08-24 15:14:44.140 ,2,0,0.,4.8,2.,4.8,0.,4.8,0.,4.8
1981-08-24 15:14:48.940 ,2,0,0.,4.8,5.,4.8,0.,4.8,0.,4.8
1981-08-24 15:14:53.740 ,2,0,0.,4.8,2.,4.8,0.,4.8,0.,4.8
1981-08-24 15:14:58.540 ,2,0,0.,4.8,2.,4.8,3.,4.8,0.,4.8
1981-08-24 15:15:03.340 ,2,0,0.,4.8,0.,4.8,1.,4.8,0.,4.8
1981-08-24 15:15:08.140 ,2,0,0.,4.8,0.,4.8,0.,4.8,1.,4.8
1981-08-24 15:15:12.940 ,1,0,0.,4.8,5.,4.8,1.,4.8,0.,4.8
1981-08-24 15:15:17.740 ,1,0,0.,4.8,1.,4.8,1.,4.8,0.,4.8
1981-08-24 15:15:22.540 ,1,0,0.,4.8,2.,4.8,0.,4.8,0.,4.8
1981-08-24 15:15:27.340 ,1,0,0.,4.8,4.,4.8,1.,4.8,0.,4.8
1981-08-24 15:15:32.140 ,1,0,0.,4.8,2.,4.8,0.,4.8,0.,4.8
1981-08-24 15:15:36.940 ,1,0,0.,4.8,2.,4.8,3.,4.8,0.,4.8
1981-08-24 15:15:41.740 ,1,0,0.,4.8,5.,4.8,1.,4.8,0.,4.8
1981-08-24 15:15:46.540 ,1,0,0.,4.8,4.,4.8,0.,4.8,0.,4.8
1981-08-24 15:15:51.340 ,1,0,0.,4.8,1.,4.8,2.,4.8,0.,4.8
1981-08-24 15:15:56.140 ,1,0,0.,4.8,1.,4.8,1.,4.8,0.,4.8
1981-08-24 15:16:00.940 ,0,0,0.,4.8,1.,4.8,1.,4.8,0.,4.8
1981-08-24 15:16:05.740 ,0,0,0.,4.8,3.,4.8,1.,4.8,0.,4.8
1981-08-24 15:16:10.540 ,0,0,0.,4.8,2.,4.8,2.,4.8,0.,4.8
1981-08-24 15:16:15.340 ,0,0,0.,4.8,2.,4.8,0.,4.8,0.,4.8
1981-08-24 15:16:20.140 ,0,0,0.,4.8,4.,4.8,1.,4.8,0.,4.8
1981-08-24 15:16:24.940 ,0,0,0.,4.8,4.,4.8,1.,4.8,1.,4.8
1981-08-24 15:16:29.740 ,0,0,0.,4.8,3.,4.8,0.,4.8,0.,4.8
1981-08-24 15:16:34.540 ,0,0,0.,4.8,4.,4.8,0.,4.8,0.,4.8
1981-08-24 15:16:39.340 ,0,0,0.,4.8,3.,4.8,0.,4.8,0.,4.8
1981-08-24 15:16:44.140 ,0,0,0.,4.8,2.,4.8,2.,4.8,0.,4.8
1981-08-24 15:16:48.940 ,0,0,0.,4.8,2.,4.8,2.,4.8,0.,4.8
1981-08-24 15:16:53.740 ,0,0,0.,4.8,5.,4.8,0.,4.8,0.,4.8
1981-08-24 15:16:58.540 ,0,0,0.,4.8,2.,4.8,1.,4.8,0.,4.8
1981-08-24 15:17:03.340 ,0,0,0.,4.8,4.,4.8,1.,4.8,0.,4.8
1981-08-24 15:17:08.140 ,0,0,0.,4.8,5.,4.8,2.,4.8,0.,4.8
1981-08-24 15:17:12.940 ,0,0,0.,4.8,4.,4.8,2.,4.8,1.,4.8
1981-08-24 15:17:17.740 ,0,0,0.,4.8,3.,4.8,0.,4.8,0.,4.8
1981-08-24 15:17:22.540 ,0,0,0.,4.8,5.,4.8,0.,4.8,0.,4.8
1981-08-24 15:17:27.340 ,0,0,0.,4.8,3.,4.8,2.,4.8,0.,4.8
1981-08-24 15:17:32.140 ,0,0,0.,4.8,3.,4.8,0.,4.8,1.,4.8
1981-08-24 15:17:36.940 ,1,0,0.,4.8,5.,4.8,0.,4.8,0.,4.8
1981-08-24 15:17:41.740 ,1,0,0.,4.8,3.,4.8,0.,4.8,0.,4.8
1981-08-24 15:17:46.540 ,1,0,0.,4.8,3.,4.8,0.,4.8,0.,4.8
1981-08-24 15:17:51.340 ,1,0,0.,4.8,4.,4.8,2.,4.8,0.,4.8
1981-08-24 15:17:56.140 ,1,0,0.,4.8,2.,4.8,2.,4.8,0.,4.8
1981-08-24 15:18:00.940 ,1,0,0.,4.8,2.,4.8,0.,4.8,0.,4.8
1981-08-24 15:18:05.740 ,1,0,0.,4.8,2.,4.8,0.,4.8,0.,4.8
1981-08-24 15:18:10.540 ,1,0,0.,4.8,2.,4.8,0.,4.8,0.,4.8
1981-08-24 15:18:15.340 ,1,0,0.,4.8,1.,4.8,1.,4.8,0.,4.8
1981-08-24 15:18:20.140 ,1,0,0.,4.8,3.,4.8,1.,4.8,0.,4.8
1981-08-24 15:18:24.940 ,2,0,0.,4.8,2.,4.8,1.,4.8,0.,4.8
1981-08-24 15:18:29.740 ,2,0,0.,4.8,0.,4.8,1.,4.8,0.,4.8
1981-08-24 15:18:34.540 ,2,0,0.,4.8,0.,4.8,0.,4.8,0.,4.8
1981-08-24 15:18:39.340 ,2,0,0.,4.8,4.,4.8,0.,4.8,0.,4.8
1981-08-24 15:18:44.140 ,2,0,0.,4.8,1.,4.8,1.,4.8,0.,4.8
1981-08-24 15:18:48.940 ,2,0,0.,4.8,2.,4.8,0.,4.8,0.,4.8
1981-08-24 15:18:53.740 ,2,0,0.,4.8,3.,4.8,0.,4.8,0.,4.8
1981-08-24 15:18:58.540 ,2,0,0.,4.8,0.,4.8,0.,4.8,0.,4.8
1981-08-24 15:19:03.340 ,2,0,0.,4.8,0.,4.8,0.,4.8,0.,4.8
1981-08-24 15:19:08.140 ,2,0,0.,4.8,0.,4.8,1.,4.8,0.,4.8
1981-08-24 15:19:12.940 ,3,0,0.,4.8,1.,4.8,1.,4.8,0.,4.8
1981-08-24 15:19:17.740 ,3,0,0.,4.8,0.,4.8,0.,4.8,0.,4.8
1981-08-24 15:19:22.540 ,3,0,0.,4.8,1.,4.8,0.,4.8,1.,4.8
1981-08-24 15:19:27.340 ,3,0,0.,4.8,1.,4.8,1.,4.8,0.,4.8
1981-08-24 15:19:32.140 ,3,0,0.,4.8,0.,4.8,1.,4.8,1.,4.8
1981-08-24 15:19:36.940 ,3,0,0.,4.8,5.,4.8,0.,4.8,0.,4.8
1981-08-24 15:19:41.740 ,3,0,0.,4.8,2.,4.8,0.,4.8,0.,4.8
1981-08-24 15:19:46.540 ,3,0,0.,4.8,2.,4.8,1.,4.8,0.,4.8
1981-08-24 15:19:51.340 ,3,0,0.,4.8,2.,4.8,0.,4.8,1.,4.8
1981-08-24 15:19:56.140 ,3,0,0.,4.8,3.,4.8,0.,4.8,1.,4.8
1981-08-24 15:20:00.940 ,4,0,0.,4.8,2.,4.8,0.,4.8,0.,4.8
1981-08-24 15:20:05.740 ,4,0,0.,4.8,3.,4.8,2.,4.8,0.,4.8
1981-08-24 15:20:10.540 ,4,0,0.,4.8,3.,4.8,0.,4.8,1.,4.8
1981-08-24 15:20:15.340 ,4,0,0.,4.8,2.,4.8,2.,4.8,1.,4.8
1981-08-24 15:20:20.140 ,4,0,0.,4.8,4.,4.8,1.,4.8,0.,4.8
1981-08-24 15:20:24.940 ,4,0,0.,4.8,1.,4.8,2.,4.8,0.,4.8
1981-08-24 15:20:29.740 ,4,0,0.,4.8,2.,4.8,1.,4.8,0.,4.8
1981-08-24 15:20:34.540 ,4,0,0.,4.8,7.,4.8,1.,4.8,0.,4.8
1981-08-24 15:20:39.340 ,4,0,0.,4.8,4.,4.8,3.,4.8,0.,4.8
1981-08-24 15:20:44.140 ,4,0,0.,4.8,5.,4.8,0.,4.8,0.,4.8
1981-08-24 15:20:48.940 ,5,0,0.,4.8,3.,4.8,0.,4.8,0.,4.8
1981-08-24 15:20:53.740 ,5,0,0.,4.8,6.,4.8,0.,4.8,0.,4.8
1981-08-24 15:20:58.540 ,5,0,0.,4.8,2.,4.8,0.,4.8,0.,4.8
1981-08-24 15:21:03.340 ,5,0,0.,4.8,2.,4.8,0.,4.8,0.,4.8
1981-08-24 15:21:08.140 ,5,0,0.,4.8,4.,4.8,1.,4.8,0.,4.8
1981-08-24 15:21:12.940 ,5,0,0.,4.8,2.,4.8,1.,4.8,0.,4.8
1981-08-24 15:21:17.740 ,5,0,0.,4.8,2.,4.8,0.,4.8,0.,4.8
1981-08-24 15:21:22.540 ,5,0,0.,4.8,3.,4.8,0.,4.8,1.,4.8
1981-08-24 15:21:27.340 ,5,0,0.,4.8,2.,4.8,0.,4.8,0.,4.8
1981-08-24 15:21:32.140 ,5,0,0.,4.8,3.,4.8,2.,4.8,1.,4.8
1981-08-24 15:21:36.940 ,6,0,0.,4.8,3.,4.8,0.,4.8,1.,4.8
1981-08-24 15:21:41.740 ,6,0,0.,4.8,4.,4.8,2.,4.8,0.,4.8
1981-08-24 15:21:46.540 ,6,0,0.,4.8,3.,4.8,0.,4.8,0.,4.8
1981-08-24 15:21:51.340 ,6,0,0.,4.8,1.,4.8,0.,4.8,0.,4.8
1981-08-24 15:21:56.140 ,6,0,0.,4.8,1.,4.8,0.,4.8,0.,4.8
1981-08-24 15:22:00.940 ,6,0,0.,4.8,1.,4.8,0.,4.8,0.,4.8
1981-08-24 15:22:05.740 ,6,0,0.,4.8,0.,4.8,0.,4.8,0.,4.8
1981-08-24 15:22:10.540 ,6,0,0.,4.8,0.,4.8,1.,4.8,0.,4.8
1981-08-24 15:22:15.340 ,6,0,0.,4.8,3.,4.8,2.,4.8,0.,4.8
1981-08-24 15:22:20.140 ,6,0,0.,4.8,0.,4.8,0.,4.8,0.,4.8
1981-08-24 15:22:24.940 ,7,0,0.,4.8,1.,4.8,0.,4.8,0.,4.8
1981-08-24 15:22:29.740 ,7,0,0.,4.8,0.,4.8,0.,4.8,0.,4.8
1981-08-24 15:22:34.540 ,7,0,0.,4.8,0.,4.8,0.,4.8,0.,4.8
1981-08-24 15:22:39.340 ,7,0,0.,4.8,0.,4.8,0.,4.8,0.,4.8
1981-08-24 15:22:44.140 ,7,0,0.,4.8,1.,4.8,0.,4.8,0.,4.8
1981-08-24 15:22:48.940 ,7,0,0.,4.8,0.,4.8,0.,4.8,0.,4.8
1981-08-24 15:22:53.740 ,7,0,0.,4.8,1.,4.8,0.,4.8,0.,4.8
1981-08-24 15:22:58.540 ,7,0,0.,4.8,0.,4.8,0.,4.8,0.,4.8
1981-08-24 15:23:03.340 ,7,0,0.,4.8,0.,4.8,1.,4.8,0.,4.8
1981-08-24 15:23:08.140 ,7,0,0.,4.8,0.,4.8,1.,4.8,0.,4.8
1981-08-24 15:23:12.940 ,7,0,0.,4.8,2.,4.8,0.,4.8,0.,4.8
1981-08-24 15:23:17.740 ,7,0,0.,4.8,0.,4.8,0.,4.8,0.,4.8
1981-08-24 15:23:22.540 ,7,0,0.,4.8,0.,4.8,0.,4.8,1.,4.8
1981-08-24 15:23:27.340 ,7,0,0.,4.8,0.,4.8,0.,4.8,0.,4.8
1981-08-24 15:23:32.140 ,7,0,0.,4.8,0.,4.8,0.,4.8,0.,4.8
1981-08-24 15:23:36.940 ,6,0,0.,4.8,1.,4.8,0.,4.8,0.,4.8
1981-08-24 15:23:41.740 ,6,0,0.,4.8,0.,4.8,0.,4.8,0.,4.8
1981-08-24 15:23:46.540 ,6,0,0.,4.8,1.,4.8,0.,4.8,0.,4.8
1981-08-24 15:23:51.340 ,6,0,0.,4.8,1.,4.8,1.,4.8,0.,4.8
1981-08-24 15:23:56.140 ,6,0,0.,4.8,3.,4.8,0.,4.8,0.,4.8
1981-08-24 15:24:00.940 ,5,0,0.,4.8,3.,4.8,1.,4.8,0.,4.8
1981-08-24 15:24:05.740 ,5,0,0.,4.8,1.,4.8,0.,4.8,0.,4.8
1981-08-24 15:24:10.540 ,5,0,0.,4.8,1.,4.8,0.,4.8,0.,4.8
1981-08-24 15:24:15.340 ,5,0,0.,4.8,2.,4.8,0.,4.8,0.,4.8
1981-08-24 15:24:20.140 ,5,0,0.,4.8,1.,4.8,0.,4.8,0.,4.8
1981-08-24 15:24:24.940 ,4,0,0.,4.8,5.,4.8,0.,4.8,0.,4.8
1981-08-24 15:24:29.740 ,4,0,0.,4.8,2.,4.8,0.,4.8,0.,4.8
1981-08-24 15:24:34.540 ,4,0,0.,4.8,5.,4.8,0.,4.8,0.,4.8
1981-08-24 15:24:39.340 ,4,0,0.,4.8,3.,4.8,2.,4.8,0.,4.8
1981-08-24 15:24:44.140 ,4,0,0.,4.8,1.,4.8,1.,4.8,0.,4.8
1981-08-24 15:24:48.940 ,3,0,0.,4.8,4.,4.8,1.,4.8,0.,4.8
1981-08-24 15:24:53.740 ,3,0,0.,4.8,4.,4.8,0.,4.8,0.,4.8
1981-08-24 15:24:58.540 ,3,0,0.,4.8,0.,4.8,0.,4.8,0.,4.8
1981-08-24 15:25:03.340 ,3,0,0.,4.8,1.,4.8,1.,4.8,0.,4.8
1981-08-24 15:25:08.140 ,3,0,0.,4.8,4.,4.8,0.,4.8,0.,4.8
1981-08-24 15:25:12.940 ,2,0,0.,4.8,4.,4.8,1.,4.8,0.,4.8
1981-08-24 15:25:17.740 ,2,0,0.,4.8,2.,4.8,1.,4.8,0.,4.8
1981-08-24 15:25:22.540 ,2,0,0.,4.8,1.,4.8,0.,4.8,0.,4.8
1981-08-24 15:25:27.340 ,2,0,0.,4.8,3.,4.8,0.,4.8,0.,4.8
1981-08-24 15:25:32.140 ,2,0,0.,4.8,0.,4.8,2.,4.8,0.,4.8
1981-08-24 15:25:36.940 ,1,0,0.,4.8,2.,4.8,1.,4.8,0.,4.8
1981-08-24 15:25:41.740 ,1,0,0.,4.8,0.,4.8,0.,4.8,0.,4.8
1981-08-24 15:25:46.540 ,1,0,0.,4.8,2.,4.8,0.,4.8,0.,4.8
1981-08-24 15:25:51.340 ,1,0,0.,4.8,1.,4.8,1.,4.8,0.,4.8
1981-08-24 15:25:56.140 ,1,0,0.,4.8,2.,4.8,0.,4.8,0.,4.8
1981-08-24 15:26:00.940 ,0,0,0.,4.8,0.,4.8,1.,4.8,0.,4.8
1981-08-24 15:26:05.740 ,0,0,0.,4.8,3.,4.8,1.,4.8,0.,4.8
1981-08-24 15:26:10.540 ,0,0,0.,4.8,1.,4.8,0.,4.8,0.,4.8
1981-08-24 15:26:15.340 ,0,0,0.,4.8,8.,4.8,0.,4.8,0.,4.8
1981-08-24 15:26:20.140 ,0,0,0.,4.8,3.,4.8,0.,4.8,0.,4.8
1981-08-24 15:26:24.940 ,0,0,0.,4.8,3.,4.8,1.,4.8,0.,4.8
1981-08-24 15:26:29.740 ,0,0,0.,4.8,5.,4.8,0.,4.8,0.,4.8
1981-08-24 15:26:34.540 ,0,0,0.,4.8,2.,4.8,1.,4.8,1.,4.8
1981-08-24 15:26:39.340 ,0,0,0.,4.8,4.,4.8,0.,4.8,0.,4.8
1981-08-24 15:26:44.140 ,0,0,0.,4.8,1.,4.8,1.,4.8,0.,4.8
1981-08-24 15:26:48.940 ,1,0,0.,4.8,4.,4.8,0.,4.8,0.,4.8
1981-08-24 15:26:53.740 ,1,0,0.,4.8,2.,4.8,0.,4.8,0.,4.8
1981-08-24 15:26:58.540 ,1,0,0.,4.8,1.,4.8,0.,4.8,0.,4.8
1981-08-24 15:27:03.340 ,1,0,0.,4.8,0.,4.8,0.,4.8,0.,4.8
1981-08-24 15:27:08.140 ,1,0,0.,4.8,2.,4.8,0.,4.8,0.,4.8
1981-08-24 15:27:12.940 ,2,0,0.,4.8,4.,4.8,0.,4.8,0.,4.8
1981-08-24 15:27:17.740 ,2,0,0.,4.8,8.,4.8,0.,4.8,0.,4.8
1981-08-24 15:27:22.540 ,2,0,0.,4.8,0.,4.8,2.,4.8,0.,4.8
1981-08-24 15:27:27.340 ,2,0,0.,4.8,2.,4.8,0.,4.8,0.,4.8
1981-08-24 15:27:32.140 ,2,0,0.,4.8,1.,4.8,0.,4.8,0.,4.8
1981-08-24 15:27:36.940 ,3,0,0.,4.8,1.,4.8,0.,4.8,1.,4.8
1981-08-24 15:27:41.740 ,3,0,0.,4.8,4.,4.8,1.,4.8,0.,4.8
1981-08-24 15:27:46.540 ,3,0,0.,4.8,1.,4.8,1.,4.8,0.,4.8
1981-08-24 15:27:51.340 ,3,0,0.,4.8,2.,4.8,0.,4.8,0.,4.8
1981-08-24 15:27:56.140 ,3,0,0.,4.8,4.,4.8,0.,4.8,0.,4.8
1981-08-24 15:28:00.940 ,4,0,0.,4.8,0.,4.8,0.,4.8,0.,4.8
1981-08-24 15:28:05.740 ,4,0,0.,4.8,2.,4.8,0.,4.8,0.,4.8
1981-08-24 15:28:10.540 ,4,0,0.,4.8,7.,4.8,1.,4.8,0.,4.8
1981-08-24 15:28:15.340 ,4,0,0.,4.8,1.,4.8,1.,4.8,0.,4.8
1981-08-24 15:28:20.140 ,4,0,0.,4.8,3.,4.8,2.,4.8,1.,4.8
1981-08-24 15:28:24.940 ,5,0,0.,4.8,4.,4.8,0.,4.8,0.,4.8
1981-08-24 15:28:29.740 ,5,0,0.,4.8,5.,4.8,0.,4.8,0.,4.8
1981-08-24 15:28:34.540 ,5,0,0.,4.8,0.,4.8,0.,4.8,0.,4.8
1981-08-24 15:28:39.340 ,5,0,0.,4.8,2.,4.8,0.,4.8,0.,4.8
1981-08-24 15:28:44.140 ,5,0,0.,4.8,3.,4.8,1.,4.8,0.,4.8
1981-08-24 15:28:48.940 ,6,0,0.,4.8,5.,4.8,1.,4.8,1.,4.8
1981-08-24 15:28:53.740 ,6,0,0.,4.8,2.,4.8,0.,4.8,0.,4.8
1981-08-24 15:28:58.540 ,6,0,0.,4.8,0.,4.8,2.,4.8,0.,4.8
1981-08-24 15:29:03.340 ,6,0,0.,4.8,1.,4.8,0.,4.8,0.,4.8
1981-08-24 15:29:08.140 ,6,0,0.,4.8,1.,4.8,0.,4.8,0.,4.8
1981-08-24 15:29:12.940 ,7,0,0.,4.8,0.,4.8,0.,4.8,1.,4.8
1981-08-24 15:29:17.740 ,7,0,0.,4.8,2.,4.8,2.,4.8,0.,4.8
1981-08-24 15:29:22.540 ,7,0,0.,4.8,1.,4.8,0.,4.8,0.,4.8
1981-08-24 15:29:27.340 ,7,0,0.,4.8,0.,4.8,1.,4.8,0.,4.8
1981-08-24 15:29:32.140 ,7,0,0.,4.8,0.,4.8,0.,4.8,0.,4.8
1981-08-24 15:29:36.940 ,7,0,0.,4.8,1.,4.8,0.,4.8,0.,4.8
1981-08-24 15:29:41.740 ,7,0,0.,4.8,3.,4.8,0.,4.8,0.,4.8
1981-08-24 15:29:46.540 ,7,0,0.,4.8,1.,4.8,0.,4.8,0.,4.8
1981-08-24 15:29:51.340 ,7,0,0.,4.8,1.,4.8,0.,4.8,0.,4.8
1981-08-24 15:29:56.140 ,7,0,0.,4.8,1.,4.8,0.,4.8,0.,4.8
1981-08-24 15:30:00.940 ,7,0,0.,4.8,0.,4.8,0.,4.8,0.,4.8
1981-08-24 15:30:05.740 ,7,0,0.,4.8,0.,4.8,0.,4.8,0.,4.8
1981-08-24 15:30:10.540 ,7,0,0.,4.8,1.,4.8,0.,4.8,0.,4.8
1981-08-24 15:30:15.340 ,7,0,0.,4.8,0.,4.8,0.,4.8,0.,4.8
1981-08-24 15:30:20.140 ,7,0,0.,4.8,1.,4.8,0.,4.8,0.,4.8
1981-08-24 15:30:24.940 ,6,0,0.,4.8,1.,4.8,0.,4.8,0.,4.8
1981-08-24 15:30:29.740 ,6,0,0.,4.8,2.,4.8,0.,4.8,0.,4.8
1981-08-24 15:30:34.540 ,6,0,0.,4.8,2.,4.8,1.,4.8,0.,4.8
1981-08-24 15:30:39.340 ,6,0,0.,4.8,1.,4.8,0.,4.8,0.,4.8
1981-08-24 15:30:44.140 ,6,0,0.,4.8,0.,4.8,0.,4.8,0.,4.8
1981-08-24 15:30:48.940 ,6,0,0.,4.8,2.,4.8,3.,4.8,1.,4.8
1981-08-24 15:30:53.740 ,6,0,0.,4.8,0.,4.8,0.,4.8,1.,4.8
1981-08-24 15:30:58.540 ,6,0,0.,4.8,4.,4.8,0.,4.8,0.,4.8
1981-08-24 15:31:03.340 ,6,0,0.,4.8,3.,4.8,1.,4.8,0.,4.8
1981-08-24 15:31:08.140 ,6,0,0.,4.8,3.,4.8,0.,4.8,1.,4.8
1981-08-24 15:31:12.940 ,5,0,0.,4.8,1.,4.8,0.,4.8,1.,4.8
1981-08-24 15:31:17.740 ,5,0,0.,4.8,2.,4.8,0.,4.8,0.,4.8
1981-08-24 15:31:22.540 ,5,0,0.,4.8,5.,4.8,1.,4.8,0.,4.8
1981-08-24 15:31:27.340 ,5,0,0.,4.8,1.,4.8,1.,4.8,0.,4.8
1981-08-24 15:31:32.140 ,5,0,0.,4.8,2.,4.8,3.,4.8,1.,4.8
1981-08-24 15:31:36.940 ,5,0,0.,4.8,4.,4.8,1.,4.8,0.,4.8
1981-08-24 15:31:41.740 ,5,0,0.,4.8,2.,4.8,1.,4.8,0.,4.8
1981-08-24 15:31:46.540 ,5,0,0.,4.8,3.,4.8,0.,4.8,0.,4.8
1981-08-24 15:31:51.340 ,5,0,0.,4.8,0.,4.8,0.,4.8,0.,4.8
1981-08-24 15:31:56.140 ,5,0,0.,4.8,3.,4.8,1.,4.8,1.,4.8
1981-08-24 15:32:00.940 ,4,0,0.,4.8,2.,4.8,0.,4.8,1.,4.8
1981-08-24 15:32:05.740 ,4,0,0.,4.8,3.,4.8,0.,4.8,1.,4.8
1981-08-24 15:32:10.540 ,4,0,0.,4.8,5.,4.8,1.,4.8,0.,4.8
1981-08-24 15:32:15.340 ,4,0,0.,4.8,6.,4.8,0.,4.8,0.,4.8
1981-08-24 15:32:20.140 ,4,0,0.,4.8,6.,4.8,0.,4.8,0.,4.8
1981-08-24 15:32:24.940 ,4,0,0.,4.8,2.,4.8,1.,4.8,0.,4.8
1981-08-24 15:32:29.740 ,4,0,0.,4.8,1.,4.8,0.,4.8,0.,4.8
1981-08-24 15:32:34.540 ,4,0,0.,4.8,5.,4.8,0.,4.8,1.,4.8
1981-08-24 15:32:39.340 ,4,0,0.,4.8,3.,4.8,1.,4.8,0.,4.8
1981-08-24 15:32:44.140 ,4,0,0.,4.8,4.,4.8,1.,4.8,0.,4.8
1981-08-24 15:32:48.940 ,3,0,0.,4.8,2.,4.8,0.,4.8,0.,4.8
1981-08-24 15:32:53.740 ,3,0,0.,4.8,5.,4.8,1.,4.8,0.,4.8
1981-08-24 15:32:58.540 ,3,0,0.,4.8,1.,4.8,2.,4.8,0.,4.8
1981-08-24 15:33:03.340 ,3,0,0.,4.8,1.,4.8,1.,4.8,0.,4.8
1981-08-24 15:33:08.140 ,3,0,0.,4.8,3.,4.8,2.,4.8,0.,4.8
1981-08-24 15:33:12.940 ,3,0,0.,4.8,1.,4.8,0.,4.8,0.,4.8
1981-08-24 15:33:17.740 ,3,0,0.,4.8,1.,4.8,0.,4.8,1.,4.8